Home   Weather   Wilhelmshaven   Past weeks

Flag for Germany Past Weather in Wilhelmshaven, Lower Saxony, Germany — Yesterday and Last 2 Weeks

Now
34 °F

Passing clouds.


Feels Like: 25 °F
Forecast: 31 / 38 °F
Wind: 12 mph from Southwest

Location: Wittmundhaven

Current Time: Dec 12, 2017 at 11:01:31 pm

Latest Report: Dec 12, 2017 at 10:20 pm


Visibility: N/A

Pressure: 29.80 "Hg

Humidity: 93%

Dew Point: 32 °F

Location of WilhelmshavenLocation

Past Weather in Wilhelmshaven — Graph

°F

Wilhelmshaven Temperature Yesterday

Maximum temperature yesterday: 34 °F (at 4:20 am)
Minimum temperature yesterday: 30 °F (at 12:20 am)
Average temperature yesterday: 32 °F

High & Low Weather Summary for the Past Weeks

 TemperatureHumidityPressure
High48 °F (Dec 5, 1:20 pm)100% (Nov 29, 2:20 am)30.39 "Hg (Nov 29, 2:20 am)
Low30 °F (Dec 1, 11:32 pm)66% (Dec 6, 7:20 pm)28.80 "Hg (Dec 10, 8:20 pm)
Average38 °F90%29.75 "Hg
* Reported Nov 27 9:20 pm — Dec 12 9:20 pm, Wilhelmshaven. Weather by CustomWeather, © 2017

Note: Actual official high and low records may vary slightly from our data, if they occured in-between our weather recording intervals... More about our weather records

Advertising

Wilhelmshaven Weather History for the Previous 24 Hours

Scroll right to see more
 ConditionsComfort  
Time TempWeatherWind HumidityBarometerVisibility
9:20 pm
Tue, Dec 12
34 °FPassing clouds.9 mph93%29.80 "HgN/A
8:20 pm34 °FPassing clouds.10 mph93%29.80 "HgN/A
7:20 pm34 °FPassing clouds.10 mph93%29.77 "HgN/A
6:20 pm34 °FPartly cloudy.10 mph93%29.77 "HgN/A
5:20 pm36 °FPartly cloudy.9 mph93%29.74 "HgN/A
4:20 pm36 °FPartly cloudy.8 mph93%29.71 "HgN/A
3:20 pm36 °FMore clouds than sun.10 mph93%29.68 "HgN/A
2:20 pm36 °FMore clouds than sun.7 mph93%29.62 "HgN/A
1:20 pm36 °FMore clouds than sun.7 mph93%29.62 "HgN/A
12:49 pm36 °FMore clouds than sun.6 mph93%29.59 "HgN/A
12:36 pm34 °FSprinkles. More clouds than sun.8 mph93%29.59 "Hg3 mi
12:17 pm36 °FSnow showers. More clouds than sun.8 mph93%29.59 "Hg2 mi
11:58 am36 °FSprinkles. More clouds than sun.13 mph93%29.56 "Hg4 mi
11:20 am37 °FMore clouds than sun.5 mph87%29.53 "HgN/A
11:06 am37 °FMore clouds than sun.6 mph87%29.53 "HgN/A
10:20 am39 °FMostly cloudy.12 mph75%29.47 "HgN/A
9:20 am37 °FMore clouds than sun.9 mph87%29.45 "HgN/A
8:20 am36 °FPartly cloudy.7 mph87%29.39 "HgN/A
7:20 am37 °FPartly cloudy.8 mph81%29.33 "HgN/A
6:20 am37 °FPartly cloudy.7 mph81%29.30 "HgN/A
5:20 am36 °FPassing clouds.6 mph87%29.24 "HgN/A
4:20 am36 °FPartly cloudy.8 mph87%29.21 "HgN/A
3:20 am36 °FPartly cloudy.10 mph93%29.18 "HgN/A
2:55 am36 °FPartly cloudy.10 mph93%29.15 "HgN/A
2:20 am36 °FLight snow. Passing clouds.10 mph93%29.12 "Hg5 mi
1:58 am36 °FLight snow. Passing clouds.10 mph93%29.12 "Hg4 mi
1:20 am34 °FLight snow. Passing clouds.12 mph100%29.09 "Hg4 mi
12:20 am34 °FLight snow. Mostly cloudy.14 mph93%29.06 "Hg3 mi
11:20 pm
Mon, Dec 11
34 °FLight snow. Mostly cloudy.14 mph93%29.06 "Hg2 mi
Weather by CustomWeather, © 2017

See weather overview